Wind_Speed
89 88 93 94 95 99 102 103 106 109 113 118 122 121 118 118 122 122 117 118 121 118 101 105 110 108 106 100 95 95 82 76 70 67 64 65 64 63 65 67 64 56 62 56
85 90 93 95 97 98 100 102 105 107 109 114 117 116 113 120 120 123 121 119 121 117 110 110 111 108 104 96 95 82 74 72 67 62 64 63 56 58 59 62 54 51 51 43
74 83 89 94 96 99 101 103 104 105 108 111 114 109 109 112 114 122 124 124 124 123 122 126 123 107 104 105 97 92 89 87 87 80 61 62 62 60 61 57 47 49 56 51
68 72 80 88 93 98 101 103 104 106 109 111 115 110 110 110 111 112 117 120 123 123 124 124 122 121 119 113 111 108 102 99 96 99 93 86 72 69 59 50 52 56 58 63
66 70 74 79 83 88 96 100 105 106 109 112 111 116 105 110 110 113 118 119 119 123 122 123 124 123 122 117 112 109 109 95 92 93 97 88 89 73 66 64 57 54 56 61
65 71 74 77 79 81 84 86 88 93 98 105 106 114 100 109 114 117 120 119 119 120 119 116 116 115 115 114 111 103 95 88 86 82 88 88 84 74 69 63 53 56 66 69
64 68 72 74 76 79 83 86 87 90 94 94 99 98 91 102 113 114 115 116 119 117 117 116 114 113 111 112 107 100 93 87 82 76 84 83 81 76 71 71 74 72 75 75
63 67 71 71 73 75 78 84 83 86 88 91 95 88 92 97 100 104 107 111 115 117 116 116 114 112 109 107 104 96 91 85 81 77 79 77 76 74 75 71 73 75 72 73
63 67 73 68 68 70 75 80 85 84 84 87 86 85 88 93 92 97 100 102 104 105 110 110 112 111 108 105 103 96 89 84 81 78 75 73 71 69 69 70 70 69 67 65
68 67 75 70 69 75 77 78 83 84 80 84 82 85 86 92 91 89 94 95 96 95 98 101 106 102 100 98 98 96 87 85 82 76 74 70 67 65 63 65 67 66 63 62
66 67 75 71 73 77 77 69 72 74 76 77 78 80 84 82 80 79 82 85 87 89 92 97 103 90 84 86 86 87 85 81 78 74 70 68 63 60 59 59 62 61 60 61
44 48 57 59 62 65 69 65 60 62 67 70 69 65 70 65 65 70 71 71 75 79 86 92 90 85 76 70 71 73 76 73 70 72 67 62 59 55 54 54 54 53 53 48
33 37 49 51 53 53 54 50 47 45 50 58 52 50 47 47 54 57 56 56 58 65 73 78 76 72 68 61 56 65 65 64 61 64 61 56 55 52 50 48 47 47 42 43
36 39 42 44 44 44 41 39 40 36 39 42 38 34 33 40 44 45 44 43 50 55 58 65 61 61 61 59 57 67 56 53 52 52 53 53 50 49 46 42 42 39 37 37
34 37 34 32 31 32 30 31 28 27 28 26 29 29 31 33 38 37 35 38 37 47 54 48 44 51 60 52 47 45 37 37 38 43 47 47 45 44 42 39 36 33 34 36
34 31 26 27 22 26 24 23 24 21 21 21 25 27 23 27 30 33 33 37 40 43 46 41 48 50 51 44 36 28 25 19 24 34 40 40 41 44 43 33 33 34 33 36
34 26 21 19 21 20 19 21 19 15 17 18 19 23 23 26 30 32 37 41 46 48 37 42 45 47 40 42 44 35 23 11 9 19 31 39 43 40 41 35 35 35 37 39
33 27 22 26 20 18 19 20 20 13 16 15 16 18 19 20 25 27 33 41 45 38 46 47 44 54 55 45 40 24 35 24 22 17 27 36 35 35 39 38 37 38 38 39
28 26 17 16 15 15 13 13 17 13 14 13 11 17 16 18 21 23 28 34 37 51 54 60 75 72 55 51 44 38 28 22 25 26 23 28 32 34 36 33 37 36 38 40
27 23 16 18 16 16 12 12 12 11 8 10 11 19 20 19 20 23 22 36 56 60 64 85 80 68 62 57 49 49 23 25 34 37 26 21 26 33 34 36 36 37 39 34
25 21 12 9 11 12 9 10 12 7 4 9 13 18 22 26 26 26 24 62 67 74 91 91 82 72 59 55 52 39 29 39 39 37 24 20 25 30 34 34 35 37 32 30
22 20 10 13 9 10 8 11 13 9 4 9 14 18 29 35 34 36 48 71 81 94 93 90 83 71 63 55 45 51 56 40 38 34 32 28 27 30 31 31 33 30 28 26
17 17 10 10 7 5 8 9 12 11 8 11 17 24 38 47 46 55 66 75 101 99 93 89 84 72 62 45 45 58 42 38 30 29 33 29 28 32 29 28 26 26 25 26
16 17 10 13 6 4 8 7 9 14 13 9 20 29 53 57 53 58 78 93 103 101 100 91 86 74 69 49 43 39 35 31 34 37 41 39 32 30 28 24 24 23 25 23
17 15 14 14 11 5 5 9 9 12 14 9 24 35 59 63 64 72 86 107 104 101 96 90 82 80 73 54 41 35 35 37 37 41 38 35 32 25 21 21 22 22 21 19
16 16 14 12 10 7 8 7 7 8 10 8 26 42 61 56 74 88 92 113 108 104 105 88 90 85 63 54 44 49 38 29 24 32 29 30 24 20 20 21 22 19 15 14
Wind_Direction
235 237 237 237 238 239 239 238 238 239 240 242 240 237 240 241 245 244 245 247 248 249 250 254 255 257 256 260 257 260 262 262 263 269 273 277 279 279 279 282 285 290 289 289
236 238 238 239 239 240 240 240 240 241 242 242 244 241 242 242 246 244 245 245 245 247 248 254 252 255 255 253 252 254 261 265 267 264 270 275 273 275 274 282 286 287 286 279
239 240 241 241 242 243 242 242 243 243 244 245 245 244 243 244 243 245 247 247 245 247 249 255 254 251 251 252 246 247 251 257 258 260 258 265 270 272 278 281 278 286 286 279
240 241 242 243 244 244 244 245 245 246 245 245 247 244 246 245 246 245 245 247 247 248 249 250 254 256 258 257 253 250 253 257 259 259 264 267 266 268 273 272 280 286 289 282
244 245 245 245 245 246 248 248 249 248 249 249 249 249 244 246 246 247 247 246 246 247 248 249 251 254 257 256 257 257 257 258 257 256 258 261 266 266 267 273 275 270 278 277
250 249 250 250 250 251 250 249 250 250 250 251 250 250 245 248 248 246 247 247 247 248 248 248 249 251 254 256 257 257 258 258 256 258 258 262 261 259 260 264 263 271 276 278
249 251 252 253 254 255 256 255 254 253 252 251 252 251 248 247 248 248 248 248 249 248 250 249 249 249 250 253 255 256 257 257 258 257 259 259 259 258 259 262 264 269 274 277
255 258 254 253 255 256 258 258 257 255 256 256 256 254 253 249 248 247 247 247 247 248 247 248 249 249 249 251 252 252 254 254 255 256 257 258 257 258 260 262 264 268 273 277
255 256 260 259 259 258 256 257 258 257 256 256 257 256 253 252 250 248 248 246 245 247 248 246 246 246 248 248 251 251 249 250 251 250 251 254 256 258 259 261 265 269 273 277
257 258 262 263 264 263 260 260 262 264 261 261 258 256 255 254 250 247 247 247 247 244 245 248 247 245 245 246 248 250 249 248 248 248 249 250 252 254 257 259 262 267 272 277
259 262 265 266 267 268 270 267 268 267 266 261 256 255 254 254 257 253 248 246 243 241 241 241 245 244 241 242 242 246 246 245 247 247 248 249 251 255 257 259 261 266 270 275
264 263 267 269 270 269 272 273 269 265 264 263 260 259 258 258 255 254 251 242 238 234 235 238 240 242 239 239 240 240 243 242 242 244 244 246 248 251 254 257 260 265 268 274
280 283 283 281 280 277 278 276 270 264 259 259 259 255 256 253 249 248 243 241 235 230 229 230 232 233 233 229 229 233 235 238 238 240 242 244 245 246 251 255 261 264 267 268
294 292 288 285 282 281 279 272 274 269 262 260 261 255 246 243 244 245 240 231 225 222 220 224 223 220 220 218 216 222 225 232 235 239 238 239 243 244 249 254 258 261 259 261
309 304 296 283 287 286 288 284 276 269 265 257 249 234 230 229 229 229 225 219 211 213 212 212 206 205 200 204 212 215 222 231 234 236 235 236 239 240 243 250 254 253 257 263
318 312 305 293 295 291 293 294 284 276 263 254 245 238 214 227 225 213 204 201 191 201 204 192 194 198 201 198 174 172 199 219 233 235 232 233 232 233 242 237 240 248 253 256
323 324 323 323 318 307 307 301 298 288 266 249 242 238 205 211 213 208 195 195 187 192 171 172 178 185 171 161 142 136 164 206 262 243 234 232 230 228 225 233 241 247 252 256
323 329 320 310 324 325 315 309 308 302 266 247 239 235 211 200 206 205 203 195 187 159 156 159 153 140 136 140 143 130 191 224 244 257 239 231 235 231 229 235 240 245 250 256
324 326 313 327 323 324 314 308 308 312 272 246 215 220 199 196 195 195 205 195 165 149 148 143 138 131 124 125 134 158 168 203 232 241 235 231 228 228 227 236 243 245 248 259
327 332 309 319 328 330 329 324 323 322 288 237 200 203 178 176 176 186 195 178 151 146 148 144 137 130 124 133 139 150 174 201 220 231 245 234 232 232 234 240 241 247 257 269
326 336 334 314 319 319 326 328 318 299 266 235 211 191 165 158 165 173 160 155 148 146 147 141 135 134 131 144 146 150 176 200 217 230 238 251 233 229 233 238 243 253 266 268
327 330 324 310 314 316 318 320 306 296 231 216 208 182 157 148 149 141 153 146 144 145 144 142 136 137 141 138 143 159 177 198 217 235 252 251 238 233 233 237 250 260 264 272
328 321 315 300 302 287 284 297 291 295 264 191 203 177 159 147 150 149 149 145 144 143 144 142 137 144 150 130 146 169 186 206 221 230 248 249 240 232 234 247 255 261 268 271
326 319 306 312 278 283 284 265 287 274 269 200 185 175 159 155 152 156 150 146 145 147 144 143 146 149 149 142 153 173 198 215 236 232 235 244 237 230 240 252 259 264 266 265
326 316 303 310 299 295 300 301 292 275 261 234 171 171 168 167 158 153 149 148 144 146 145 143 143 146 148 144 143 187 200 220 230 226 227 229 226 237 247 252 256 256 260 272
327 320 320 314 306 327 350 328 326 245 233 200 165 171 177 182 157 151 152 151 148 147 145 146 152 153 147 135 151 195 197 217 223 216 215 225 234 241 244 248 249 251 266 277
Height
10604 10613 10612 10620 10628 10634 10642 10649 10651 10652 10656 10658 10671 10697 10706 10707 10706 10718 10727 10729 10733 10737 10739 10742 10754 10763 10771 10777 10783 10787 10797 10806 10809 10812 10811 10813 10813 10815 10815 10815 10818 10817 10810 10807
10588 10589 10593 10598 10604 10611 10616 10623 10629 10633 10637 10639 10643 10677 10689 10691 10693 10695 10703 10711 10712 10720 10725 10718 10731 10737 10746 10758 10769 10773 10780 10788 10794 10798 10798 10801 10802 10803 10804 10805 10806 10805 10802 10798
10569 10571 10576 10581 10585 10590 10595 10599 10604 10611 10616 10617 10625 10648 10660 10663 10669 10672 10676 10685 10690 10695 10701 10700 10699 10714 10723 10734 10750 10764 10770 10776 10782 10786 10789 10791 10793 10791 10792 10793 10794 10791 10791 10790
10554 10555 10558 10561 10564 10568 10570 10574 10582 10588 10591 10595 10595 10624 10633 10641 10643 10651 10651 10651 10659 10664 10671 10678 10679 10682 10696 10710 10720 10737 10754 10765 10769 10768 10774 10777 10785 10782 10781 10786 10783 10779 10778 10780
10539 10538 10539 10542 10545 10547 10550 10556 10561 10569 10569 10571 10583 10581 10625 10611 10620 10621 10620 10625 10630 10633 10650 10663 10672 10672 10673 10688 10700 10714 10729 10745 10754 10761 10757 10762 10773 10770 10770 10775 10774 10769 10768 10769
10521 10522 10523 10525 10527 10528 10530 10533 10538 10541 10543 10547 10550 10550 10606 10589 10583 10586 10589 10602 10613 10616 10626 10640 10651 10660 10662 10670 10682 10699 10715 10729 10736 10743 10743 10745 10757 10759 10762 10762 10763 10758 10760 10760
10506 10505 10504 10507 10510 10509 10508 10510 10514 10514 10514 10522 10513 10538 10569 10542 10553 10564 10571 10577 10582 10593 10599 10612 10625 10636 10646 10650 10664 10680 10696 10710 10719 10729 10728 10730 10738 10743 10749 10751 10751 10748 10748 10749
10491 10487 10483 10490 10491 10492 10490 10484 10490 10490 10492 10494 10492 10523 10519 10515 10523 10528 10541 10548 10552 10558 10575 10585 10599 10611 10624 10632 10643 10665 10679 10691 10700 10712 10709 10716 10721 10730 10735 10740 10739 10739 10740 10738
10474 10472 10462 10470 10473 10474 10470 10463 10459 10463 10470 10468 10473 10482 10484 10484 10500 10503 10509 10513 10525 10536 10542 10560 10568 10582 10602 10616 10623 10644 10661 10674 10684 10690 10695 10702 10710 10716 10723 10727 10725 10727 10728 10727
10456 10458 10444 10452 10455 10446 10444 10445 10437 10435 10445 10441 10451 10452 10457 10452 10458 10476 10478 10489 10504 10518 10524 10530 10534 10565 10586 10601 10612 10621 10645 10657 10664 10677 10685 10690 10696 10702 10711 10713 10713 10715 10717 10716
10438 10441 10429 10435 10432 10424 10415 10420 10420 10417 10414 10414 10419 10422 10422 10433 10441 10449 10454 10461 10472 10488 10499 10503 10510 10544 10567 10581 10597 10608 10623 10638 10651 10662 10670 10678 10686 10694 10698 10700 10701 10706 10707 10707
10424 10423 10414 10417 10410 10406 10398 10397 10399 10396 10390 10386 10392 10406 10403 10415 10418 10420 10424 10434 10444 10458 10471 10480 10500 10524 10551 10569 10583 10593 10603 10623 10637 10645 10656 10667 10677 10683 10685 10689 10691 10695 10697 10699
10412 10411 10401 10394 10390 10386 10380 10376 10374 10376 10372 10364 10375 10382 10389 10394 10392 10394 10403 10415 10427 10436 10448 10459 10486 10513 10535 10555 10565 10575 10590 10606 10622 10633 10646 10657 10663 10672 10675 10678 10682 10685 10689 10687
10401 10395 10388 10378 10371 10368 10364 10362 10360 10359 10357 10357 10364 10368 10372 10372 10379 10385 10392 10400 10407 10420 10436 10450 10476 10498 10517 10533 10541 10554 10580 10597 10611 10625 10636 10645 10653 10661 10665 10670 10674 10677 10678 10679
10388 10381 10372 10365 10360 10354 10351 10347 10349 10348 10345 10348 10348 10352 10356 10360 10364 10372 10381 10388 10401 10410 10421 10447 10470 10487 10505 10514 10536 10561 10580 10594 10605 10616 10625 10636 10644 10650 10656 10662 10666 10669 10671 10671
10378 10370 10362 10356 10352 10347 10343 10340 10339 10338 10337 10337 10339 10344 10348 10355 10358 10365 10373 10381 10393 10402 10419 10446 10461 10475 10497 10520 10538 10558 10574 10589 10600 10609 10618 10629 10635 10640 10648 10654 10660 10662 10663 10664
10368 10361 10356 10352 10345 10340 10336 10333 10333 10332 10330 10329 10332 10337 10340 10347 10352 10363 10367 10375 10385 10400 10431 10445 10460 10476 10499 10521 10534 10548 10569 10589 10599 10607 10614 10621 10626 10635 10640 10647 10652 10655 10656 10657
10360 10355 10350 10346 10338 10336 10330 10329 10328 10328 10325 10326 10330 10333 10340 10347 10353 10365 10371 10376 10388 10417 10428 10442 10465 10488 10502 10521 10537 10554 10573 10589 10598 10604 10611 10618 10624 10629 10635 10640 10644 10648 10650 10650
10356 10351 10347 10341 10334 10332 10329 10327 10325 10325 10323 10325 10330 10334 10338 10346 10355 10364 10374 10382 10400 10415 10429 10447 10469 10487 10500 10512 10536 10559 10578 10590 10598 10603 10608 10612 10618 10624 10628 10634 10637 10641 10641 10641
10347 10344 10340 10335 10329 10326 10324 10321 10321 10322 10321 10324 10326 10331 10337 10346 10357 10364 10372 10387 10401 10412 10434 10454 10473 10491 10503 10519 10539 10563 10577 10589 10594 10597 10603 10608 10615 10618 10623 10627 10630 10631 10632 10634
10341 10339 10335 10331 10325 10322 10320 10318 10318 10319 10320 10320 10324 10327 10336 10345 10355 10366 10376 10384 10402 10420 10438 10458 10474 10494 10508 10529 10537 10557 10577 10580 10587 10591 10597 10606 10611 10614 10617 10621 10624 10624 10625 10625
10335 10332 10331 10327 10321 10319 10317 10316 10315 10314 10317 10317 10320 10328 10334 10341 10354 10363 10376 10386 10403 10425 10447 10463 10473 10493 10513 10524 10538 10560 10568 10576 10579 10586 10594 10602 10607 10610 10613 10616 10617 10619 10619 10618
10331 10328 10325 10322 10318 10316 10314 10313 10310 10309 10312 10318 10318 10324 10332 10337 10350 10360 10377 10395 10411 10428 10448 10465 10474 10495 10511 10525 10541 10550 10565 10568 10575 10583 10591 10599 10604 10606 10609 10611 10613 10614 10613 10613
10326 10323 10322 10318 10315 10313 10312 10311 10308 10306 10305 10314 10317 10321 10327 10334 10347 10364 10376 10395 10414 10432 10448 10464 10477 10496 10515 10526 10541 10555 10561 10564 10575 10583 10590 10595 10600 10602 10604 10607 10608 10608 10608 10608
10322 10319 10317 10315 10312 10310 10310 10307 10305 10302 10302 10308 10317 10320 10324 10329 10342 10361 10379 10401 10417 10437 10451 10465 10479 10499 10516 10532 10547 10553 10562 10568 10573 10578 10584 10590 10594 10598 10601 10603 10603 10603 10603 10602
10318 10315 10313 10311 10309 10306 10304 10302 10300 10299 10300 10304 10312 10319 10325 10332 10341 10356 10380 10399 10412 10432 10449 10462 10476 10496 10514 10525 10541 10544 10555 10562 10566 10571 10578 10585 10591 10594 10597 10598 10599 10599 10598 10598